National Weather Service Hourly Weather Roundup
NOAA NWS Hourly Roundups by Site
NOAA NWS Hourly Roundups by Site
Regional Weather Roundup for Sacramento, CA

To Select Another Site Choose from List

Select Site:  

490
ASUS46 KSTO 220609
RWRCA

NORTHERN AND CENTRAL CA REGIONAL WEATHER ROUNDUP
NATIONAL WEATHER SERVICE SACRAMENTO CA
1000 PM PST THU NOV 21 2019

NOTE: FAIR INDICATES FEW OR NO CLOUDS BELOW 12,000 FEET WITH NO
SIGNIFICANT WEATHER AND/OR OBSTRUCTIONS TO VISIBILITY.

CAZ001-003-220700-
NORTHWEST AREA

CITY           SKY/WX    TMP DP  RH WIND       PRES   REMARKS
CRESCENT CITY  NOT AVBL
ARCATA         NOT AVBL
SHELTER COVE   NOT AVBL
UKIAH          CLEAR     45  35  68 CALM      30.04R
$$

CAZ006-505>513-220700-
BAY AREA

CITY           SKY/WX    TMP DP  RH WIND       PRES   REMARKS
SANTA ROSA     CLEAR     44  43  96 CALM      30.03R
SAN RAFAEL     N/A       MM  MM  MM MISG
NAPA           CLEAR     47  46  97 CALM      30.03R
CONCORD        CLEAR     50  43  77 CALM      30.04R
OAKLAND CITY   N/A       55  MM  MM MISG
OAKLAND        CLEAR     51  47  86 NE3       30.03R
SAN FRAN CITY  N/A       54  MM  79 MISG
SAN FRAN ARPT  CLEAR     55  46  71 CALM      30.02R
LIVERMORE      CLEAR     48  41  76 CALM      30.04R
HAYWARD        CLEAR     51  44  77 NE5       30.03R
REDWOOD CITY   N/A       50  MM  84 MISG
MOFFETT ARPT   NOT AVBL
SAN JOSE ARPT  CLEAR     53  45  74 S3        30.04R
$$
CAZ034-037-514>518-220700-
CENTRAL COAST

CITY           SKY/WX    TMP DP  RH WIND       PRES   REMARKS
WATSONVILLE    MOCLDY    51  45  79 N5        30.05R
SALINAS        PTCLDY    51  46  83 NE6       30.04R
MONTEREY       MOCLDY    52  47  83 E5        30.04R
PT PIEDRAS BLS NOT AVBL
SAN LUIS OBISP CLEAR     46  41  82 CALM      30.05R
SANTA MARIA    CLEAR     50  45  83 CALM      30.05R
$$
CAZ015-016-220700-
NORTHERN SACRAMENTO VALLEY

CITY           SKY/WX    TMP DP  RH WIND       PRES   REMARKS
REDDING        CLEAR     46  33  60 CALM      30.04R
RED BLUFF      CLEAR     41  31  67 NW3       30.04R HAZE
OROVILLE       CLEAR     51  41  68 NE3       30.04R
$$
CAZ016>018-220700-
SOUTHERN SACRAMENTO VALLEY

CITY           SKY/WX    TMP DP  RH WIND       PRES   REMARKS
AUBURN         PTCLDY    46  41  81 CALM      30.03R
BEALE AFB      CLEAR     50  41  69 CALM      30.01R
LINCOLN        FAIR      45  41  87 CALM      30.01R
MARYSVILLE     CLEAR     45  39  79 CALM      30.03R
SAC INTL ARPT  CLEAR     50  43  77 CALM      30.02R
MATHER AIRPORT CLEAR     48  41  76 S3        30.01R
DOWNTOWN SAC   N/A       51  MM  MM MISG
SAC EXEC ARPT  CLEAR     48  43  82 CALM      30.03R
VACAVILLE      CLEAR     47  41  80 CALM      30.04R
TRAVIS AFB     CLEAR     47  40  78 S6        30.03R
$$
CAZ019>021-220700-
SAN JOAQUIN VALLEY

CITY           SKY/WX    TMP DP  RH WIND       PRES   REMARKS
STOCKTON       CLEAR     47  39  74 CALM      30.02R
MODESTO        CLEAR     47  40  76 CALM      30.02R
MERCED         CLEAR     46  38  73 SE5       30.02R
LEMOORE        CLEAR     45  34  65 CALM      30.04R
FRESNO         PTCLDY    52  41  66 CALM      30.03R
HANFORD        CLEAR     47  43  86 CALM      30.04R
PORTERVILLE    CLEAR     47  42  83 S3        30.04R
BAKERSFIELD    CLEAR     53  44  71 CALM      30.03R
$$
CAZ011-012-071-220700-
NORTHERN MOUNTAINS

CITY           SKY/WX    TMP DP  RH WIND       PRES   REMARKS
YREKA          CLEAR     25  17  72 NE3       30.08R
MOUNT SHASTA   CLEAR     30  25  81 CALM      30.05R
ALTURAS        CLEAR     26  19  74 CALM      30.06R HAZE
$$
CAZ011-012-071-220700-
SIERRA NEVADA MTNS

CITY           SKY/WX    TMP DP  RH WIND       PRES   REMARKS
BLUE CANYON    CLOUDY    42  35  76 CALM      30.07R
TRUCKEE        CLOUDY    36  30  80 CALM      30.07R
TAHOE VLY ARPT CLOUDY    38  32  79 CALM      30.05R
MAMMOTH LAKES  CLOUDY    34  29  83 CALM      30.07S
$$



 

View Past Reports for Sacramento, CA.

Products Courtesy of NOAA-NWS
NWS Information Parsing Script by Ken True at Saratoga Weather - Script by SE Lincoln Weather.

powered by Cumulus v1.9.3 (1059)
Ambient Weather VWS v14.00
Top Website Map Copyright © 2007 - 2019 Foresthillweather.com Never base important decisions on this or any weather information obtained from the Internet